Location: Unspecified
(50.7693°N, 0.0000°E)
Time: 09:30:01
(UTC+00:00)

deb Explorer IX - Pass Details

Date: 19 June 2019
Orbit: 539 x 1112 km, 38.8° (Epoch: 24 July)

Event Time Altitude Azimuth Distance (km) Brightness Sun altitude
Rises 16:11:40 0° 239° (WSW) 3,925 ? 35.1°
Reaches altitude 10° 16:14:48 10° 230° (SW) 2,968 ? 34.6°
Maximum altitude 16:20:57 30° 173° (S) 1,841 ? 33.7°
Drops below altitude 10° 16:26:48 10° 116° (ESE) 2,810 ? 32.7°
Sets 16:29:41 0° 105° (ESE) 3,685 ? 32.3°
